Regional Weather Roundup
Issued by NWS Cleveland, OH

Home | Current Version | Previous Version | Text Only | Print | Product List | Glossary Off
Versions: 1 2 3 4 5 6 7 8 9 10 11 12 13 14 15 16 17 18 19 20 21 22 23 24 25 26 27 28 29 30 31 32 33 34 35 36 37 38 39 40 41 42 43 44 45 46 47 48 49 50

000
ASUS41 KCLE 270010
RWRCLE
OHIO REGIONAL WEATHER ROUNDUP
NATIONAL WEATHER SERVICE WILMINGTON, OH
700 PM EST WED NOV 26 2014

NOTE: "FAIR" INDICATES FEW OR NO CLOUDS BELOW 12,000 FEET WITH NO
SIGNIFICANT WEATHER AND/OR OBSTRUCTIONS TO VISIBILITY.

OHZ001>008-015>018-024>027-034-035-043-044-270100-
   NORTHWEST OHIO

CITY           SKY/WX    TMP DP  RH WIND       PRES   REMARKS
DEFIANCE       CLOUDY    31  25  78 CALM      30.09S
FINDLAY        CLOUDY    33  26  75 N8        30.06S WCI  26
TOLEDO EXPRESS CLOUDY    30  24  78 N3        30.08S
TOLEDO METCALF CLOUDY    33  24  69 N7        30.08F WCI  27
LIMA           CLOUDY    32  24  72 CALM      30.06S
$$

OHZ009>014-019>023-028>033-038-089-270100-
   NORTHEAST OHIO

CITY           SKY/WX    TMP DP  RH WIND       PRES   REMARKS
CLE-HOPKINS    CLOUDY    34  27  75 W7        30.07S WCI  28
CLE-LAKEFRONT  CLOUDY    37  27  67 W5        30.04F
CUY CO. ARPT   MOCLDY    36  30  80 NW5       30.04S
LORAIN-ELYRIA  CLOUDY    33  28  81 NW5       30.05S WCI  29
ASHTABULA      CLOUDY    35  28  75 CALM      30.03S
AKRON-CANTON   CLOUDY    36  25  64 N7        30.01F
WOOSTER        CLOUDY    33  26  75 N6        30.03S WCI  28
MANSFIELD      CLOUDY    31  27  85 NW8       30.02F WCI  23
YOUNGSTOWN     CLOUDY    34  29  82 CALM      30.00F
$$

OHZ042-051>053-060>062-070>072-077>081-270100-
  SOUTHWEST OHIO

CITY           SKY/WX    TMP DP  RH WIND       PRES   REMARKS
CINC-COVINGTON CLOUDY    35  25  66 N6        30.03R
CINC-LUNKEN    CLOUDY    34  26  72 NE5       30.06R WCI  30
HAMILTON       CLOUDY    33  26  75 N7        30.06R WCI  27
DAYTON         CLOUDY    31  24  75 N6        30.05S WCI  25
WRIGHT-PAT AFB CLOUDY    32  25  76 N8        30.04F WCI  24
DAYTON GENERAL MOCLDY    32  25  75 N6        30.03S WCI  26
WILMINGTON     PTCLDY    31  23  72 N3        30.03S
$$

OHZ036-037-039>041-045>050-054>059-063>069-073>076-082>088-270100-
  CENTRAL AND SOUTHEAST OHIO

CITY           SKY/WX    TMP DP  RH WIND       PRES   REMARKS
COLUMBUS       CLOUDY    35  25  66 N6        30.04S
OSU AIRPORT    CLOUDY    34  26  72 NW7       30.04S WCI  28
BOLTON FIELD   CLOUDY    33  28  79 MISG      30.05S
RICKENBACK AFB CLOUDY    35  26  70 NW5       30.04S
NEWARK         CLOUDY    36  27  69 NW5       30.03S
MARION         CLOUDY    32  27  81 N7        30.04F WCI  26
LANCASTER      CLOUDY    36  27  69 N5        30.04S
ZANESVILLE     CLOUDY    36  27  69 N3        30.02F
NEW PHILLY     CLOUDY    38  28  67 N5        30.03S
$$



USA.gov is the U.S. government's official web portal to all federal, state and local government web resources and services.